Flag for Germany Weather past 2 weeks in Tuttlingen, Baden-Württemberg, Germany

Now
36 °F

Overcast.


Feels Like: 36 °F
Forecast: 18 / 34 °F
Wind: 2 mph from Northwest

Location: Konstanz

Current Time: Feb 28, 2015 at 12:25:31 AM

Latest Report: Feb 28, 2015 at 12:00 AM


Visibility: 3 mi

Pressure: 30.20 "Hg

Humidity: 97%

Dew point: 35 °F

Location of TuttlingenLocation

Historic Weather in Tuttlingen — Graph

°F

Tuttlingen temperature yesterday

Maximum temperature yesterday: 36 °F (at 11:00 PM)
Minimum temperature yesterday: 31 °F (at 1:00 AM)
Average temperature yesterday: 34 °F

Past Weeks' High & Low Weather Summary

 TemperatureHumidityPressure
High47 °F (Feb 20, 4:00 PM)100% (Feb 13, 12:00 AM)30.77 "Hg (Feb 13, 12:00 AM)
Low26 °F (Feb 20, 8:00 AM)40% (Feb 20, 5:00 PM)29.55 "Hg (Feb 21, 1:00 PM)
Average33 °F87%30.09 "Hg
* Reported Feb 12 11:00 PM — Feb 27 11:00 PM, Tuttlingen, Weather by CustomWeather, © 2015

Note: Actual official high and low records may vary slightly from our data, if they occured in-between our weather recording intervals... More about our weather records

Advertising

Tuttlingen weather history for previous 24 hours

 ConditionsComfort  
Time TempWeatherWind HumidityBarometerVisibility
11:00 PM
Fri, Feb 27
36 °FLight rain. Overcast.3 mph93%30.19 "Hg9 mi
10:00 PM36 °FLight rain. Passing clouds.2 mph92%30.17 "Hg11 mi
9:00 PM35 °FLight rain. Low clouds.2 mph97%30.15 "Hg7 mi
8:00 PM36 °FLight rain. Overcast.3 mph95%30.14 "Hg9 mi
7:00 PM36 °FLight rain. Overcast.3 mph95%30.11 "Hg8 mi
6:00 PM36 °FLight rain. Low clouds.5 mph95%30.07 "Hg7 mi
5:00 PM36 °FLight rain. Low clouds.3 mph95%30.03 "Hg6 mi
4:00 PM36 °FLight rain. Low clouds.3 mph94%30.00 "Hg6 mi
3:00 PM35 °FDrizzle. Low clouds.2 mph97%29.97 "Hg4 mi
2:00 PM34 °FDrizzle. Low clouds.1 mph96%29.95 "Hg3 mi
1:00 PM34 °FSnow. Dense fog.1 mph95%29.93 "Hg1 mi
12:00 PM34 °FSnow. Dense fog.1 mph93%29.92 "Hg1 mi
11:00 AM33 °FLight snow. Low clouds.1 mph95%29.90 "Hg1 mi
10:00 AM33 °FSnow. Dense fog.No wind96%29.89 "Hg1 mi
9:00 AM32 °FSnow. Dense fog.No wind94%29.90 "Hg1 mi
8:00 AM33 °FLight snow. Overcast.1 mph88%29.89 "Hg1 mi
7:00 AM33 °FLight snow. Overcast.2 mph86%29.88 "Hg5 mi
6:00 AM33 °FLight snow. Overcast.1 mph81%29.89 "Hg7 mi
5:00 AM33 °FOvercast.1 mph83%29.89 "Hg18 mi
4:00 AM33 °FOvercast.1 mph85%29.91 "Hg16 mi
3:00 AM32 °FOvercast.1 mph86%29.94 "Hg16 mi
2:00 AM31 °FOvercast.1 mph87%29.96 "Hg17 mi
1:00 AM31 °FClear.1 mph87%29.98 "Hg19 mi
12:00 AM32 °FClear.1 mph85%30.00 "Hg19 mi
Weather by CustomWeather, © 2015

See weather overviewHow to use our weather pages